Theta_e
313 312 312 312 312 312 311 311 310 309 307 308 308 313 315 317 314 326 330 332 329 318 307 309 307 305 307 310 310 311 312 311 313 312 312 308 310 308 307 307 307 310 309 310 310 311 308 309 307 309 309 310 313 316 316 317 315 315 313 314 314 327 308 305 306 310 313 316 317 319 318 317 314 314 315 313 309 310 308 307 309 305 307 304 304 302 307
313 312 311 311 312 312 311 311 310 308 307 308 310 311 314 317 318 320 328 331 329 315 303 302 304 306 309 308 308 311 311 312 311 310 312 310 308 307 306 308 310 309 312 311 308 312 305 310 310 308 312 310 316 316 316 317 314 313 313 311 314 307 309 306 303 303 306 308 312 312 316 315 312 311 313 314 314 313 312 311 312 306 306 306 303 299 307
313 312 311 311 311 311 311 311 310 308 307 308 309 308 313 314 319 321 321 327 325 312 312 309 307 306 307 307 306 308 311 314 314 312 310 311 309 309 307 308 310 310 311 311 312 312 309 308 312 311 311 311 316 316 316 316 315 316 317 332 317 308 308 306 299 298 296 297 299 302 305 308 312 313 313 314 312 311 309 306 309 302 311 309 305 306 314
313 312 311 311 311 311 311 310 309 308 307 307 310 311 312 317 311 317 318 318 317 315 317 314 312 311 311 308 309 310 309 313 314 312 310 311 311 311 311 313 312 310 311 309 309 310 313 309 310 310 309 312 314 316 316 316 315 323 340 324 317 310 310 309 306 303 302 306 310 312 313 311 308 310 311 311 313 314 312 310 308 304 310 307 312 309 311
313 312 311 311 311 311 310 310 309 308 307 307 308 312 314 318 313 315 311 317 314 312 314 312 314 311 314 307 311 308 309 310 310 313 307 311 312 315 314 312 310 309 309 310 309 310 310 313 311 311 310 312 314 316 316 316 318 337 328 323 315 313 308 309 309 308 307 309 310 312 313 310 311 310 310 311 312 312 311 308 306 322 307 303 315 323 309
312 312 312 312 312 312 311 309 308 307 307 307 312 313 320 313 317 319 320 312 308 309 310 313 313 314 314 310 313 309 308 308 307 311 312 312 314 310 313 314 313 313 311 310 307 309 310 311 309 312 313 312 313 312 315 314 327 322 315 317 313 309 306 310 309 308 310 310 310 311 311 312 311 311 311 310 311 311 309 310 311 311 306 304 316 319 311
312 312 312 313 313 312 312 310 308 306 305 306 314 313 316 317 316 317 320 313 316 316 315 315 313 313 313 311 312 310 310 309 311 313 311 311 311 314 308 310 312 313 315 313 310 311 308 308 313 312 311 311 311 310 312 314 316 315 313 315 319 312 307 310 311 309 310 310 310 311 310 310 311 311 312 312 311 311 311 310 312 311 310 311 311 320 312
312 312 312 312 312 312 312 310 309 307 305 312 319 315 309 309 309 311 316 315 314 317 318 318 315 311 314 309 312 312 312 310 312 314 313 311 309 316 311 311 313 313 313 314 312 315 315 313 312 316 315 313 313 311 312 312 315 316 312 313 316 310 308 312 310 308 308 310 311 310 310 309 308 310 312 312 312 312 312 311 312 312 311 312 311 312 314
312 312 311 312 312 312 312 311 309 308 306 314 314 314 313 311 316 316 310 308 314 316 317 315 313 312 313 310 312 312 312 311 314 314 317 315 313 314 311 313 315 317 315 314 315 318 318 318 317 318 317 312 316 311 315 317 313 314 313 313 314 312 308 311 309 304 305 309 309 309 309 309 308 308 310 310 310 309 310 310 313 311 310 311 311 311 311
312 312 311 311 312 312 312 311 309 308 307 312 312 310 316 314 315 317 313 308 315 312 316 315 313 309 313 312 313 312 312 314 314 312 318 319 319 319 317 318 316 317 314 315 317 319 319 319 320 321 321 321 321 321 319 318 314 314 312 316 311 312 310 308 307 303 304 308 310 309 309 307 304 305 309 311 312 313 313 314 315 313 313 310 309 310 321
312 312 312 311 312 312 312 311 311 309 310 308 308 309 313 309 308 312 314 309 312 313 312 312 311 314 314 315 314 315 314 315 315 310 314 317 318 321 320 318 315 313 313 317 322 323 322 322 322 322 321 320 319 319 319 320 319 317 317 314 314 315 311 308 310 304 305 308 308 309 305 299 301 312 313 313 311 313 310 311 313 315 314 312 320 320 324
312 312 311 310 312 312 311 312 311 310 309 310 311 311 315 314 312 313 312 307 309 314 312 310 312 314 313 315 316 315 315 315 315 317 313 315 318 320 320 319 317 312 319 324 324 323 324 323 322 322 321 320 319 319 319 317 317 321 319 316 315 312 311 309 312 306 304 308 308 303 298 300 312 315 315 315 314 317 319 321 314 315 317 318 317 318 322
312 312 312 311 311 312 311 312 311 310 310 310 309 309 314 316 311 311 310 309 307 310 310 312 314 314 315 315 315 316 317 318 318 318 317 316 316 318 319 318 318 319 323 322 322 321 316 315 316 317 316 317 317 318 317 317 317 319 319 318 315 313 311 312 311 310 309 306 305 297 299 310 314 318 317 317 316 315 313 312 314 316 316 318 320 321 321
312 312 312 311 311 310 311 311 311 311 310 309 308 310 315 315 309 309 309 305 306 311 312 311 314 313 313 314 314 314 316 316 318 318 315 317 316 317 320 321 322 324 323 322 320 319 314 314 311 311 311 314 314 312 315 317 317 317 317 318 317 315 315 313 308 312 303 305 304 303 311 309 311 314 315 315 315 314 312 307 312 317 319 320 320 322 324
312 312 312 311 311 311 311 310 311 311 310 308 310 312 316 316 312 309 311 309 305 308 310 306 309 310 312 313 314 312 313 314 314 313 317 318 316 318 320 322 324 323 322 319 316 317 313 313 308 305 307 307 304 306 313 311 317 318 318 318 319 320 312 316 310 308 309 304 302 303 303 300 307 314 322 324 324 321 320 316 313 318 319 321 321 323 322
312 312 311 311 312 311 310 310 311 311 310 308 309 310 314 316 314 312 309 306 306 302 309 312 312 312 311 312 314 312 310 311 312 313 312 314 315 317 319 322 323 322 319 317 317 314 314 311 306 305 304 306 310 309 307 311 311 316 318 318 317 318 318 317 310 308 308 305 301 301 300 304 313 314 318 326 327 321 329 313 308 320 320 322 325 322 323
311 311 311 312 312 311 311 311 311 311 310 308 306 309 312 318 313 310 307 307 308 304 312 313 313 312 311 310 312 311 313 311 312 307 307 311 314 317 318 320 322 320 317 314 314 312 311 309 310 310 310 311 308 308 310 309 308 309 315 317 315 315 313 314 309 307 308 307 304 301 307 306 317 320 322 323 323 320 316 304 305 317 320 323 326 325 323
311 311 311 312 312 311 311 311 311 310 309 307 307 307 310 317 315 313 307 306 304 305 311 313 309 307 307 307 305 311 314 314 313 314 312 314 314 314 315 318 314 318 319 311 314 309 308 310 307 306 305 312 313 311 303 309 307 311 308 312 311 311 312 315 308 308 307 307 306 307 313 321 320 320 322 323 323 321 308 302 314 322 321 325 326 325 327
311 311 311 312 312 312 311 311 311 311 310 307 309 309 312 315 315 313 309 306 305 302 310 312 311 309 311 313 310 311 312 312 313 309 310 309 312 315 317 318 319 311 316 310 313 309 308 310 313 311 308 310 311 306 312 307 307 312 312 308 309 312 312 312 311 308 306 307 305 305 313 319 321 325 322 324 316 307 305 321 329 325 325 328 326 327 327
311 311 311 311 311 311 311 312 311 310 310 309 308 305 308 313 314 312 308 302 304 301 305 306 308 306 310 307 306 308 310 311 312 309 308 305 315 315 313 309 316 315 312 312 306 311 308 306 308 313 308 311 312 314 310 312 314 311 310 313 311 313 309 308 309 312 310 310 307 303 297 318 323 321 323 328 317 318 326 332 326 326 324 325 325 326 326
311 311 311 312 311 311 311 311 311 310 310 310 308 306 306 314 315 314 313 308 303 300 303 312 311 308 309 308 309 309 307 304 306 304 307 306 313 313 304 306 312 313 311 312 304 306 310 307 309 310 312 312 320 312 307 311 311 316 313 313 311 321 309 309 312 314 308 306 305 304 314 322 323 325 320 324 326 331 328 325 323 328 325 324 324 326 328
311 311 311 312 311 311 311 311 311 310 310 310 308 308 305 311 313 312 311 310 304 301 305 309 310 309 311 311 311 310 309 308 308 309 305 305 312 311 311 312 312 312 315 317 313 312 314 314 316 310 308 314 318 310 315 306 305 315 319 316 306 318 313 317 309 319 313 311 312 318 323 325 324 327 327 328 331 330 326 326 325 325 325 328 326 326 328
311 311 311 311 311 311 311 311 311 310 309 309 308 307 303 307 309 313 311 306 309 309 310 309 311 312 314 315 316 316 314 314 311 310 309 305 305 309 310 310 311 316 317 319 316 315 315 315 313 315 312 315 313 312 312 311 309 314 312 319 315 323 320 328 318 315 321 320 321 322 322 323 323 325 327 326 326 326 325 325 324 327 329 328 327 327 328
311 311 311 311 311 311 311 311 311 310 309 309 308 307 306 308 309 310 309 307 305 303 308 312 309 307 310 310 315 317 316 315 314 314 314 311 302 305 310 313 315 315 317 320 323 316 316 314 315 317 310 317 315 311 307 307 311 314 312 313 316 319 319 317 313 320 312 305 321 318 319 321 322 323 326 329 329 330 327 327 329 327 328 327 328 331 331
311 311 311 311 311 311 311 311 311 310 310 309 309 309 309 309 312 311 305 300 301 301 296 302 306 312 315 315 315 314 316 318 317 315 313 311 309 305 306 311 312 309 310 315 320 317 318 313 314 314 309 317 316 309 314 311 312 317 309 312 314 314 322 315 316 314 311 313 325 324 322 323 326 325 324 323 326 328 329 329 329 333 334 329 329 330 329
311 311 311 311 311 311 311 311 310 310 310 310 309 306 305 307 311 312 309 308 306 305 298 300 307 315 316 314 311 313 316 315 315 315 314 313 312 311 309 311 312 315 314 314 315 313 313 314 316 315 311 313 321 312 312 316 314 318 317 320 320 324 323 312 318 313 315 318 320 320 321 322 324 323 326 327 327 330 329 327 327 328 329 330 330 330 329
311 311 311 311 311 311 311 310 310 310 309 310 309 308 307 308 311 309 306 306 301 299 303 301 307 311 313 309 313 315 315 315 315 315 315 315 314 314 313 312 311 312 311 312 315 313 312 312 312 311 315 314 318 317 318 317 317 316 315 317 322 319 313 318 316 312 311 315 322 323 314 319 320 320 327 328 329 329 329 328 328 330 334 334 328 328 328
311 311 311 311 310 310 310 310 310 310 309 310 310 309 311 309 311 312 312 311 305 298 298 298 300 306 311 307 311 313 314 314 313 312 312 313 314 313 313 312 313 310 310 310 308 309 309 306 308 315 315 317 314 313 317 318 318 316 316 318 319 315 324 320 313 313 315 319 327 328 327 325 324 324 327 330 329 329 328 329 328 329 330 330 327 328 332
311 311 311 310 310 310 310 310 310 310 310 309 310 308 309 312 313 313 313 313 312 305 302 303 305 304 301 308 315 314 316 316 314 313 312 313 313 313 312 312 312 311 311 310 310 310 309 311 313 312 312 321 315 312 314 311 312 310 317 324 320 324 324 321 321 321 320 323 324 325 325 322 323 327 328 328 330 329 326 327 328 328 330 332 331 334 331
311 311 311 310 310 310 310 310 310 309 310 309 306 306 304 308 313 314 314 313 313 309 301 299 296 302 311 310 309 312 313 315 313 313 313 312 312 313 313 313 313 313 312 310 311 307 310 310 313 316 318 324 315 315 311 311 309 313 323 325 324 326 326 327 325 323 325 327 329 328 327 326 326 328 329 327 330 328 326 328 328 328 330 331 332 336 336
311 310 310 310 310 310 310 310 310 310 308 307 305 300 302 299 306 313 313 314 315 309 303 302 298 305 304 311 312 310 309 310 312 311 311 312 313 314 315 315 314 313 309 310 310 310 312 310 311 312 316 317 317 313 311 310 309 314 321 324 324 324 324 325 325 329 330 332 331 330 329 328 329 327 328 328 328 329 329 329 333 335 333 334 334 336 331
311 310 310 310 310 310 310 310 310 309 308 305 301 302 304 304 308 311 312 313 314 306 301 298 299 301 303 306 311 315 312 311 311 311 311 312 310 313 314 314 312 314 313 310 312 312 310 312 311 313 313 318 317 310 311 310 308 312 320 321 325 326 327 326 326 329 331 331 329 327 325 325 329 325 324 328 328 328 328 330 332 333 336 335 333 334 331
310 310 310 310 310 309 310 309 309 308 307 308 310 309 309 310 310 310 311 313 309 305 306 301 297 300 300 304 310 312 312 309 308 308 307 311 309 313 311 314 313 313 320 312 309 308 313 312 313 310 314 319 313 312 311 308 310 315 318 323 324 326 326 327 327 329 330 329 329 326 326 325 329 331 332 334 329 327 329 330 331 333 329 329 331 334 334
310 310 310 310 309 309 309 309 308 308 308 305 302 304 309 311 310 310 310 312 307 308 306 300 297 298 299 309 303 309 312 305 306 309 305 311 312 311 310 311 313 309 312 309 312 311 312 312 311 311 314 312 314 310 307 312 315 316 319 321 325 325 327 327 325 326 327 329 329 329 334 333 334 336 335 332 332 330 335 329 331 330 329 327 327 330 334
310 310 309 309 308 309 308 307 306 306 303 304 305 310 314 314 313 312 309 308 301 301 301 302 302 297 298 301 301 306 312 309 305 309 306 311 314 310 312 308 312 307 310 315 311 310 309 310 313 309 307 313 310 305 307 310 314 317 318 319 324 326 325 323 324 327 326 328 327 327 330 331 330 329 330 331 330 331 331 332 329 331 328 328 330 333 335
309 309 308 308 307 308 308 307 305 303 303 303 306 315 316 317 315 312 311 311 307 302 301 301 302 299 300 295 297 308 311 308 310 310 310 311 310 314 312 310 305 309 317 311 307 310 308 315 311 304 310 307 306 309 311 315 314 315 317 317 321 324 326 325 326 326 327 328 326 327 325 327 326 327 330 331 331 329 331 328 328 329 328 333 336 338 340
308 307 308 307 306 304 301 303 308 306 305 313 312 313 313 314 313 314 311 309 310 311 301 300 297 298 300 300 304 309 308 301 310 306 308 306 306 313 310 309 305 311 310 308 308 308 312 318 310 306 307 305 309 315 319 320 319 316 317 318 324 327 328 327 328 327 325 325 325 325 325 325 325 329 329 329 333 331 329 327 326 326 327 331 335 337 338
307 307 306 303 302 300 301 305 308 312 317 313 314 309 307 307 301 303 306 302 306 307 304 302 297 300 304 301 298 309 307 304 310 304 306 309 305 305 310 308 307 308 301 305 309 316 314 312 309 306 308 314 320 318 318 323 321 322 321 322 320 325 328 327 328 326 325 323 323 324 324 324 324 327 328 330 332 331 330 332 331 329 331 332 338 336 337
305 305 304 303 301 300 302 307 311 311 312 313 309 304 302 306 302 298 300 303 305 299 303 301 298 302 301 300 302 310 305 302 302 305 302 312 306 302 308 300 307 307 303 304 308 315 305 307 308 308 306 311 312 317 320 324 322 331 331 327 329 336 334 329 328 328 325 325 326 327 327 326 325 328 330 331 332 334 334 335 332 332 333 333 338 340 341
304 300 300 301 300 303 308 313 317 312 310 303 304 301 297 303 297 295 304 298 298 301 303 298 303 302 303 301 301 302 310 305 301 302 304 307 312 303 310 307 312 304 300 300 306 313 305 302 307 305 305 310 316 327 328 327 329 331 332 332 332 334 334 335 334 333 332 329 327 325 326 327 326 328 330 331 332 333 335 334 336 337 338 340 343 342 342
303 303 304 302 305 307 308 309 309 308 303 299 300 301 298 295 300 302 301 296 296 299 306 303 304 302 304 304 304 300 312 312 312 311 307 303 313 310 305 301 314 304 302 301 309 311 308 306 305 303 311 318 321 325 325 326 327 328 330 330 331 332 331 332 331 333 332 332 332 331 332 329 327 328 332 332 334 336 337 339 338 340 340 343 343 342 344
308 305 306 308 308 310 308 305 303 300 300 301 295 292 296 296 299 298 299 293 295 300 302 303 300 301 301 304 304 305 307 316 312 309 306 301 308 306 304 308 307 302 299 308 313 308 307 301 303 303 311 318 322 324 323 323 325 326 327 330 330 330 331 331 332 333 334 333 333 333 334 333 332 333 334 334 334 335 338 336 335 339 342 346 347 346 344
308 308 309 305 304 302 302 294 298 298 290 291 290 287 293 292 295 294 296 300 304 301 303 307 306 309 310 310 307 309 307 312 307 306 304 302 310 308 303 302 302 297 303 312 308 305 302 302 303 307 314 317 320 321 322 322 323 325 326 326 329 329 330 330 331 331 332 333 334 335 336 335 335 334 332 336 333 335 336 335 338 342 346 347 346 344 341
307 306 302 301 298 300 300 287 299 294 290 292 289 284 289 290 294 296 294 297 301 299 304 301 303 302 299 308 305 307 307 309 309 306 304 307 304 302 301 299 299 307 311 305 304 300 303 308 310 312 314 317 317 319 319 321 321 322 323 324 326 327 327 328 330 330 331 333 333 335 336 336 335 335 335 336 332 335 336 340 341 341 344 346 345 342 340
301 298 299 297 291 298 295 286 298 292 286 289 293 292 293 290 294 297 296 302 302 301 304 305 305 302 301 308 308 307 307 303 305 302 300 304 300 302 300 300 305 305 301 299 301 302 304 305 314 313 315 315 316 317 319 319 320 320 321 324 323 324 325 326 326 328 328 331 331 333 333 335 336 336 336 337 337 336 335 341 340 340 342 343 343 340 340
298 294 292 287 284 291 291 287 290 288 294 297 295 295 295 296 297 297 302 304 302 303 301 302 303 303 300 306 301 303 306 305 301 302 304 303 299 296 304 308 306 300 300 299 298 299 302 305 309 312 314 315 315 317 318 318 320 321 321 319 321 322 323 324 325 326 327 330 331 332 333 334 335 335 335 337 338 339 343 344 341 340 341 340 339 339 338
299 300 296 294 287 290 297 289 290 294 297 298 299 300 298 300 300 301 303 303 302 303 302 305 303 303 300 302 302 303 304 305 300 305 305 299 298 300 306 301 296 298 295 295 298 300 305 309 311 313 314 314 316 316 317 318 318 319 319 320 320 321 322 323 325 325 327 328 329 331 333 333 334 336 337 336 338 340 342 344 343 340 339 337 338 339 338
291 299 298 287 285 289 288 292 297 298 300 300 300 301 301 302 301 301 304 303 304 304 303 303 300 302 299 305 303 299 303 305 300 302 303 302 304 299 298 298 297 299 300 299 299 305 307 310 311 312 314 315 315 315 315 316 316 317 318 318 319 320 321 321 322 324 326 327 328 330 332 334 334 335 336 338 338 340 346 344 343 341 340 338 337 338 336
301 296 290 290 294 293 292 295 295 293 297 299 300 299 299 299 299 300 303 304 302 302 303 302 301 300 296 302 300 299 297 302 296 297 302 300 296 292 294 293 295 294 301 303 305 307 309 311 313 314 313 314 315 314 315 315 316 317 317 318 319 319 321 322 323 324 326 327 328 330 331 333 334 335 337 338 336 337 344 343 342 340 340 339 337 336 335
297 294 298 295 294 295 297 297 295 293 296 297 298 298 300 299 299 300 305 302 304 303 303 302 303 298 298 299 293 297 297 300 299 299 298 295 297 298 296 293 296 297 301 306 308 311 312 312 313 313 313 314 314 314 314 315 316 317 318 319 320 320 320 321 322 324 326 327 329 330 332 333 333 334 335 337 337 344 342 342 341 339 339 340 338 336 335
301 298 296 299 293 293 296 292 292 292 294 295 297 297 299 298 300 300 304 302 303 301 299 296 298 297 293 294 294 289 294 301 298 296 296 296 299 298 295 295 299 303 306 308 309 311 311 312 310 310 311 310 311 313 315 316 316 317 318 319 319 320 321 323 323 324 325 328 330 330 332 333 334 335 336 334 331 326 326 334 340 341 339 339 338 336 334
292 290 292 297 299 298 297 297 297 296 296 298 297 299 300 298 300 301 305 302 300 296 295 298 296 293 291 289 294 297 301 298 295 297 294 298 301 297 297 300 303 305 309 307 310 309 311 311 311 310 310 309 310 311 314 315 316 317 318 317 318 319 321 322 322 323 326 327 329 331 332 333 334 334 335 331 329 326 324 329 336 338 336 335 335 335 333
Wind_Speed
19 20 20 21 22 22 23 24 24 25 26 16 13 11 6 7 3 8 13 13 15 11 8 8 9 11 11 14 16 15 9 10 8 9 7 9 7 10 10 10 10 9 10 8 7 7 9 14 14 13 16 14 14 11 16 12 13 8 8 11 10 11 10 8 9 9 9 13 15 15 16 16 14 14 15 15 14 11 10 9 9 9 7 8 5 7 2
19 20 20 21 21 22 23 23 23 23 21 14 12 9 7 9 6 5 8 12 13 10 9 10 10 10 13 15 16 15 11 7 10 12 13 10 8 10 9 10 11 12 9 9 11 4 8 7 15 14 12 13 15 18 14 13 11 10 6 8 10 10 10 10 7 6 6 9 11 12 14 13 11 12 12 13 13 14 14 12 10 11 6 9 6 6 3
19 20 20 20 21 22 23 24 24 23 19 15 8 7 8 9 8 6 7 10 11 10 9 9 7 11 13 13 15 14 8 7 13 12 11 11 13 10 10 11 8 12 10 12 12 9 10 5 10 13 9 10 11 14 16 17 12 12 8 10 6 10 6 11 11 10 10 10 10 11 12 15 11 14 16 15 17 19 15 13 5 6 5 8 7 5 2
19 19 20 20 21 22 23 25 25 24 20 15 9 7 7 4 6 8 7 9 10 11 12 12 9 9 10 10 12 12 12 9 13 14 15 13 13 13 12 8 13 14 12 13 10 12 8 11 4 8 10 11 9 8 13 14 12 13 2 3 10 7 8 10 11 11 10 8 7 6 10 10 12 14 16 18 19 20 14 10 7 6 4 6 4 7 4
19 19 20 20 21 22 23 25 27 26 24 16 8 6 5 7 6 1 3 7 10 10 10 11 10 10 6 9 11 14 11 12 11 15 11 12 13 9 9 10 9 12 13 10 11 12 12 10 13 10 12 13 9 8 12 14 14 2 8 5 8 6 9 12 14 16 17 17 11 12 13 14 15 17 16 18 19 14 11 11 11 3 5 9 3 5 8
20 20 20 20 21 23 24 25 27 28 28 23 6 6 5 6 5 6 7 7 4 9 10 11 12 15 10 10 9 9 12 12 11 12 11 11 12 12 9 13 14 12 11 10 9 10 12 12 13 12 10 11 15 14 17 14 17 7 9 11 9 8 9 9 13 14 15 17 19 17 14 12 13 13 16 17 15 16 16 16 14 14 10 10 6 4 5
20 20 21 21 22 25 24 25 26 29 31 25 4 6 7 7 8 8 14 7 8 9 8 10 12 14 13 8 6 10 12 10 10 5 8 10 10 12 11 12 14 15 13 11 9 10 10 9 10 11 9 14 9 10 4 9 4 11 10 7 6 7 10 11 10 13 12 14 16 18 20 17 17 16 15 15 15 17 18 19 18 18 16 14 13 8 11
19 19 20 21 23 25 23 24 25 28 33 23 6 7 7 7 8 8 13 11 12 11 9 7 9 10 8 8 7 9 10 10 9 8 9 7 12 7 12 13 13 16 18 13 10 7 7 6 6 7 12 11 10 8 8 6 11 16 14 10 9 8 8 10 12 10 13 16 17 18 20 18 18 15 17 17 18 21 20 16 17 17 17 18 16 13 10
18 19 19 19 21 23 22 22 24 27 28 10 11 5 8 7 7 7 9 11 8 10 10 8 7 8 7 8 9 10 10 12 7 7 6 9 6 6 12 10 6 8 14 12 3 10 4 4 6 5 8 6 4 10 4 5 7 14 11 9 10 13 10 9 10 11 12 12 15 16 17 19 19 18 17 16 15 16 11 10 11 16 14 16 17 10 8
17 18 19 17 19 21 20 20 23 24 25 8 9 8 9 8 8 8 6 9 10 11 9 10 8 8 7 8 10 9 10 9 4 9 5 8 10 6 6 5 8 5 8 8 5 3 6 8 7 6 8 8 8 8 7 9 9 6 10 7 11 9 8 9 9 11 11 13 14 15 16 15 17 19 19 19 17 12 12 13 12 15 15 13 11 2 9
16 17 18 17 17 19 18 19 20 22 16 10 9 9 9 10 11 9 7 8 9 10 10 9 10 7 7 9 11 10 12 9 6 8 3 8 9 6 3 7 6 8 0 7 9 5 7 9 11 8 10 12 12 10 10 12 12 11 7 7 10 10 10 9 8 10 9 12 15 14 13 15 12 10 18 19 18 13 14 13 13 13 16 3 11 11 8
15 16 16 16 15 15 17 17 18 19 17 11 9 9 8 9 8 7 7 8 9 9 10 9 8 7 10 10 9 8 9 9 10 6 10 6 8 5 6 6 5 7 10 9 8 8 9 11 13 13 12 13 14 15 16 15 15 11 10 10 6 10 11 11 7 9 11 10 10 12 15 12 7 11 13 16 18 14 12 10 11 13 2 13 10 8 11
14 15 15 16 15 15 15 14 15 18 17 13 10 8 9 9 8 7 7 7 8 9 9 8 16 15 10 13 11 10 11 9 9 10 10 10 7 8 7 8 6 5 7 8 9 9 8 8 11 12 15 16 16 16 17 17 16 16 13 13 12 10 11 8 8 7 8 9 7 11 10 11 6 10 10 14 17 17 19 16 11 11 11 4 8 10 10
14 14 15 15 15 15 15 14 15 17 18 15 10 9 8 7 7 7 6 6 8 9 12 12 12 11 16 16 10 13 11 10 10 10 12 9 13 11 9 8 6 5 6 7 8 7 6 8 8 6 9 10 10 12 13 16 17 17 17 14 12 14 10 9 9 6 11 8 9 11 8 15 10 5 8 8 5 9 8 6 7 9 4 2 8 15 11
12 13 13 14 14 14 15 15 14 15 16 18 11 10 7 6 6 6 7 7 10 12 11 9 10 12 15 13 12 8 5 9 10 10 12 12 13 10 10 10 8 4 6 6 6 5 7 3 5 8 8 10 10 8 8 10 11 17 17 14 12 10 12 6 10 8 10 10 10 9 10 13 9 6 4 8 12 12 7 5 4 5 6 5 4 11 14
12 13 13 13 14 13 14 14 12 13 15 17 11 8 8 5 6 5 6 6 7 7 2 11 13 11 10 11 12 10 7 9 10 10 10 9 11 13 14 8 9 2 4 6 6 6 5 5 7 8 9 8 8 7 7 7 8 10 13 15 15 13 12 10 11 8 9 11 11 10 10 8 7 10 8 7 5 8 5 5 10 7 5 4 15 15 11
11 12 12 12 13 13 13 12 11 10 12 14 11 10 7 7 5 6 7 6 6 12 16 17 12 11 8 9 9 9 6 7 7 8 7 7 7 8 8 10 13 5 6 8 7 7 7 8 7 6 6 6 8 7 7 7 6 9 10 8 10 11 9 10 11 13 11 10 10 11 6 2 7 13 12 6 1 3 6 8 6 6 10 8 13 13 12
11 11 11 12 12 12 12 11 12 9 10 14 11 9 10 3 6 6 5 6 8 10 10 9 14 8 7 9 9 10 8 8 8 7 8 8 8 8 8 10 6 4 6 9 7 9 9 8 7 7 9 5 6 4 9 7 10 1 4 10 6 6 8 7 10 11 12 12 10 8 2 4 5 2 5 7 5 7 6 9 3 3 7 9 10 9 10
11 10 10 11 12 12 12 12 13 12 11 13 14 10 6 7 4 2 5 6 7 10 13 19 13 11 10 9 9 9 8 9 8 7 7 7 4 14 12 10 6 6 3 8 6 7 8 8 7 7 5 3 4 7 4 7 8 5 8 9 7 7 7 5 6 7 10 10 10 7 5 5 11 11 4 4 2 7 6 2 3 9 8 14 10 13 13
10 10 10 11 11 11 11 12 12 12 11 11 11 8 11 11 5 4 5 7 7 11 15 16 13 11 10 9 7 6 7 7 5 7 6 9 11 14 6 6 5 8 10 8 10 6 9 11 8 6 9 8 6 6 8 11 7 7 5 5 4 3 4 3 4 7 8 6 3 4 2 5 12 5 8 11 5 3 1 1 5 8 6 12 14 11 10
10 10 10 10 10 10 10 11 11 11 11 9 10 9 10 9 6 7 6 6 7 10 10 4 10 16 13 12 13 13 11 10 9 8 8 8 8 6 6 3 6 6 4 4 8 8 6 8 9 7 5 1 3 6 7 3 4 9 13 6 8 5 7 3 2 3 4 9 4 0 3 4 3 6 2 2 4 3 5 4 5 12 13 13 11 9 8
11 10 10 10 9 9 9 10 10 9 10 8 10 8 8 8 9 7 7 7 7 9 11 18 18 16 18 18 16 14 13 14 13 9 8 7 6 6 8 10 10 7 5 4 6 6 5 5 6 6 2 4 2 6 4 4 5 5 7 2 10 7 8 2 2 2 3 6 5 7 1 3 5 5 7 3 2 1 1 2 6 6 4 9 8 10 10
11 10 10 9 9 8 8 9 9 9 10 9 9 7 7 8 8 9 9 8 8 11 13 15 15 15 15 18 17 14 14 12 12 10 9 7 8 7 8 7 8 8 5 4 5 6 6 5 7 3 1 1 5 3 3 4 5 4 4 2 6 1 6 4 3 4 5 8 5 3 3 4 4 8 2 2 2 3 5 3 6 7 4 5 9 9 8
11 11 10 9 9 8 8 8 9 9 8 6 6 7 7 7 9 8 8 7 9 11 11 11 11 9 8 7 8 13 10 9 10 9 7 7 8 7 7 6 7 6 4 9 7 7 6 6 6 5 6 2 9 5 4 4 5 5 9 7 4 8 9 5 6 2 4 5 4 11 9 5 4 5 6 3 4 9 6 9 6 1 3 7 8 9 9
12 10 10 9 9 8 8 8 9 9 6 6 9 9 8 8 6 5 7 8 7 8 8 9 10 11 12 5 4 4 8 7 6 8 8 9 10 9 9 6 10 8 8 8 7 7 5 7 6 5 8 5 6 8 6 5 6 7 9 7 4 6 4 7 7 7 7 6 5 8 11 4 9 4 5 3 0 4 5 8 3 5 7 10 10 10 10
11 10 10 9 8 8 8 8 9 8 7 7 9 8 7 8 7 6 6 6 6 6 8 8 9 7 2 5 6 4 4 7 8 10 10 10 10 11 12 10 8 6 8 7 7 7 6 6 6 7 7 5 4 7 7 5 8 4 1 4 6 2 3 4 3 8 8 13 15 11 1 11 3 10 4 5 2 3 11 14 11 9 4 6 10 7 7
11 10 9 9 8 7 8 8 8 8 8 9 9 8 9 8 7 6 6 6 7 6 8 9 8 13 14 18 17 15 13 10 8 8 9 11 11 10 10 10 8 6 7 7 6 7 6 7 7 8 6 7 4 7 6 7 7 3 1 4 5 3 7 3 5 9 5 3 4 6 5 2 6 4 8 4 5 2 8 8 7 2 3 5 3 5 5
10 9 9 8 8 8 8 9 9 8 9 10 10 9 9 9 8 7 6 6 5 7 10 11 10 13 18 22 18 14 14 13 13 12 12 12 12 11 11 9 8 7 6 7 7 7 7 8 8 7 8 8 9 9 8 9 8 8 6 6 6 7 1 3 6 5 3 4 1 2 2 6 6 7 3 5 6 5 7 9 11 8 5 3 1 4 7
11 9 8 8 8 8 8 9 9 8 8 10 9 10 10 10 8 9 6 2 4 6 8 11 13 13 9 6 8 9 6 8 10 11 10 11 11 11 11 10 9 8 8 8 7 7 7 7 7 7 5 4 4 6 5 8 7 9 1 5 2 2 6 3 8 3 2 4 3 2 1 3 2 5 6 4 3 6 5 8 6 8 6 5 4 7 4
10 9 8 8 8 8 9 8 8 8 6 8 7 7 7 4 4 2 2 1 1 4 6 9 9 6 9 9 11 11 10 10 10 10 11 10 10 9 9 9 9 9 8 7 6 8 8 8 8 9 10 4 6 5 8 7 9 2 3 3 6 2 3 5 3 3 4 2 4 4 3 5 2 4 4 7 6 7 8 7 9 9 7 6 6 5 5
9 9 8 8 8 8 8 8 8 6 7 7 6 6 6 5 3 5 4 2 2 4 6 7 11 11 12 12 12 12 11 10 9 9 10 10 9 9 8 8 8 8 8 8 8 8 6 8 7 8 9 9 6 6 6 7 8 4 7 5 5 5 6 6 4 2 4 2 4 4 3 3 8 5 2 2 2 3 4 8 5 6 9 9 9 4 6
9 9 8 8 8 8 8 9 9 8 7 7 7 5 5 4 4 5 6 4 3 6 6 9 9 7 7 8 8 6 7 8 8 8 7 7 9 8 9 9 8 8 8 8 7 6 9 9 9 7 7 4 6 8 8 8 9 6 5 5 4 3 2 3 4 1 5 2 2 3 4 4 6 5 1 1 5 10 5 6 6 3 6 11 10 6 9
9 9 8 8 9 8 9 9 9 8 7 10 18 21 22 18 16 13 9 6 5 6 5 6 8 7 6 7 9 6 7 4 7 6 8 7 9 7 9 9 8 8 8 7 7 7 6 8 8 10 10 7 6 5 7 9 9 9 6 6 7 6 3 1 0 3 3 2 2 3 3 2 4 4 6 10 6 3 6 6 10 4 8 9 8 11 10
8 8 8 9 9 8 8 9 8 10 11 9 9 8 8 14 11 15 10 6 5 5 4 6 6 8 9 9 10 1 6 5 4 6 8 8 7 7 8 7 8 8 8 9 6 7 7 8 9 8 7 10 8 7 9 9 9 11 6 7 4 7 5 3 3 3 4 4 2 2 4 2 2 0 4 4 4 2 4 5 8 7 9 8 8 10 10
7 7 8 8 8 8 8 7 8 7 7 7 8 6 3 9 8 11 11 6 5 4 5 6 5 7 8 7 9 4 2 6 7 6 9 6 8 9 7 8 7 8 6 6 8 8 7 7 7 8 10 7 9 10 9 9 10 9 9 8 6 5 5 6 6 3 2 4 7 6 5 7 4 3 3 2 2 3 5 5 5 9 7 8 8 9 11
6 6 6 6 8 7 8 9 8 7 7 8 3 8 12 8 9 8 8 8 6 6 6 6 5 9 7 8 5 4 2 7 6 6 6 3 8 6 6 5 7 8 5 6 8 7 9 6 6 10 8 9 10 8 8 9 11 11 10 10 8 8 7 5 3 4 4 1 2 5 7 8 9 6 3 5 7 10 8 4 3 4 6 4 6 6 8
1 1 5 8 5 5 6 7 6 9 4 4 7 5 4 3 5 4 6 5 6 5 6 6 8 9 9 8 7 6 5 8 2 5 6 5 6 4 6 6 9 3 6 8 8 9 9 7 8 9 9 11 8 7 7 6 9 11 11 10 6 6 5 5 5 5 5 6 6 6 3 2 1 4 7 6 4 10 9 9 4 5 6 6 6 4 4
1 2 3 4 4 5 6 5 4 6 14 12 11 5 5 4 5 5 4 6 6 6 6 6 11 9 8 9 10 6 7 6 3 4 5 6 6 7 5 6 6 5 9 7 8 8 7 7 9 9 9 8 7 8 8 6 5 5 7 8 7 8 8 7 8 7 6 7 6 5 2 1 4 4 8 6 4 2 5 8 7 7 7 5 6 6 5
1 3 3 4 3 4 1 3 3 2 5 7 5 4 4 4 4 3 5 5 4 7 7 9 11 9 9 9 10 8 7 7 8 5 5 4 4 4 6 8 5 6 7 7 8 8 10 9 9 9 10 7 8 8 9 8 1 8 8 6 7 9 7 5 2 5 7 6 3 5 6 4 5 4 4 6 2 2 2 3 6 5 6 8 9 8 9
3 4 3 3 5 3 2 2 6 6 5 5 3 4 5 5 6 6 5 5 5 6 4 8 9 9 10 10 8 7 5 7 7 6 5 4 1 4 4 5 2 4 9 9 5 9 9 9 8 9 9 3 3 11 10 8 10 8 8 8 9 9 8 6 6 7 6 3 3 6 8 7 7 4 2 4 6 5 3 2 2 3 5 8 10 11 11
4 4 5 3 2 4 2 3 5 6 4 5 3 4 4 5 7 4 3 7 6 5 6 7 5 7 8 9 9 9 3 4 3 5 4 7 1 4 5 5 3 5 5 8 4 6 6 8 6 9 3 5 4 7 8 9 9 9 8 8 8 8 8 7 6 6 6 5 5 5 6 3 5 7 7 9 9 7 5 3 3 5 7 8 10 11 11
1 2 3 4 5 5 4 3 3 2 3 3 3 5 5 5 4 6 6 7 7 5 7 5 7 7 7 9 8 7 2 6 4 4 2 4 2 5 7 3 3 5 7 4 4 5 7 8 10 4 4 5 8 7 9 8 7 9 9 10 10 9 9 8 7 7 6 6 5 6 5 6 7 7 7 2 12 7 7 4 2 4 8 8 9 9 11
7 6 5 4 3 3 2 3 4 3 2 5 4 3 4 6 6 8 7 6 2 5 3 4 3 2 3 1 3 2 1 2 2 2 4 6 2 3 5 5 4 6 7 4 5 5 7 8 1 3 1 5 6 7 7 7 5 5 7 7 8 8 8 9 8 7 7 6 7 7 5 7 7 7 7 7 9 14 8 6 6 5 5 8 9 10 11
3 3 3 2 4 3 3 3 5 4 4 4 4 4 6 9 7 7 6 6 7 6 5 5 2 4 3 3 4 2 4 4 2 2 4 3 4 4 3 5 8 5 5 6 5 8 7 1 3 4 6 5 5 6 6 7 7 4 6 5 5 5 8 7 8 8 9 8 7 6 7 7 8 7 8 6 7 8 11 10 9 8 8 8 9 11 11
3 3 3 3 1 2 2 1 4 4 5 7 7 8 7 7 2 3 2 4 3 1 1 2 5 4 4 2 2 4 5 2 3 1 3 2 5 5 5 5 4 4 6 8 7 6 5 3 4 6 5 5 4 5 5 5 6 6 4 4 6 6 6 7 6 6 6 7 8 8 8 7 7 7 7 7 7 7 9 12 10 9 9 8 9 11 11
5 4 2 2 1 2 2 2 2 4 6 6 8 9 10 6 7 3 4 4 2 4 5 2 3 3 6 4 3 1 3 3 3 4 3 2 4 5 5 5 3 5 5 7 9 8 1 7 6 6 5 5 5 5 4 4 4 5 5 4 4 6 5 6 7 7 7 7 7 8 9 8 7 7 7 8 7 8 6 12 12 11 10 9 9 11 12
4 3 3 2 2 3 5 4 6 7 5 7 8 7 9 6 3 3 2 4 2 7 7 2 3 4 6 2 5 5 6 5 5 2 3 4 4 3 3 4 6 5 6 7 9 4 5 4 6 6 4 4 4 4 4 4 3 4 5 5 5 5 7 6 7 6 7 8 9 9 9 8 8 8 7 8 8 9 8 13 13 14 13 11 10 10 12
3 3 4 3 3 3 9 8 8 9 9 7 4 5 5 7 7 7 5 2 4 4 5 1 4 3 6 4 5 6 5 3 5 5 4 3 1 3 2 3 5 5 5 8 1 5 6 5 5 5 4 3 3 3 4 4 4 4 4 5 5 6 6 7 7 7 7 8 8 8 8 9 8 8 8 8 9 7 10 12 13 13 12 12 12 12 13
4 2 2 3 4 4 7 9 10 10 7 6 4 5 4 5 6 6 3 1 2 3 3 4 3 3 6 3 6 4 7 5 6 5 5 6 4 3 4 4 5 7 6 4 3 6 6 5 6 5 5 3 3 2 4 4 4 5 4 5 5 5 6 7 7 8 8 7 8 8 9 9 10 9 9 8 10 6 10 14 15 12 12 13 13 12 11
5 3 5 6 6 8 8 6 6 8 5 5 5 6 4 5 5 7 3 2 2 3 3 4 3 5 6 4 3 4 6 5 6 4 5 8 7 6 6 8 7 4 3 3 4 6 6 5 5 5 4 4 5 3 2 3 4 5 5 5 5 6 7 8 8 8 8 8 9 9 10 10 10 8 9 8 7 2 9 15 15 14 12 13 13 13 12
3 4 6 6 9 6 5 5 5 6 6 5 3 5 5 6 5 5 2 4 2 5 3 5 4 5 3 4 4 3 5 4 6 8 7 7 5 7 7 8 0 5 4 4 5 2 4 5 5 3 5 5 4 4 3 5 5 5 5 5 6 7 7 8 8 8 9 9 10 10 10 9 8 8 4 5 9 8 9 3 10 13 13 12 12 13 13
2 3 5 7 8 10 10 9 7 8 7 6 6 5 3 4 4 3 6 1 1 3 6 4 5 4 2 5 6 6 5 4 6 6 8 8 5 7 7 6 3 3 4 4 3 0 4 5 6 4 4 3 4 4 4 3 4 5 5 5 6 7 8 8 9 9 9 10 10 10 10 8 7 4 5 6 6 10 11 8 8 12 12 12 12 14 13
Wind_Direction
334 332 333 334 336 337 335 335 338 340 344 348 346 320 282 230 258 126 166 164 184 195 211 204 211 223 232 242 245 247 229 261 276 261 261 267 217 262 257 255 254 255 275 287 292 257 257 226 217 226 203 243 198 170 197 240 215 228 195 208 225 192 250 251 269 282 240 208 223 197 203 240 238 226 218 203 214 221 242 230 225 223 213 245 236 224 160
336 334 335 336 336 336 335 336 339 340 354 346 321 309 298 311 306 151 155 181 193 217 217 201 215 221 230 236 251 241 252 232 234 240 256 256 236 228 244 250 255 281 243 257 259 279 286 232 235 216 208 224 208 195 192 195 225 206 185 225 161 226 191 257 258 239 261 253 202 216 195 206 236 245 227 247 246 226 227 227 246 259 230 242 230 245 251
337 334 337 337 338 337 336 337 336 339 343 346 321 310 313 295 266 182 157 184 209 224 231 242 236 217 221 229 235 246 225 240 266 269 241 229 264 259 221 244 244 221 254 267 254 242 246 258 246 285 255 244 217 183 212 159 237 194 215 209 162 214 188 186 236 235 220 218 208 207 207 198 212 232 246 215 237 257 265 255 212 231 189 232 261 254 169
337 336 340 338 340 339 338 337 335 336 340 343 325 302 293 285 302 146 161 185 207 247 270 287 291 291 284 256 249 243 255 233 214 239 260 261 231 227 275 224 219 257 225 230 248 258 229 256 274 243 255 245 233 200 189 154 211 214 223 215 235 207 228 206 209 244 244 232 251 205 214 237 216 215 222 244 233 228 242 282 276 259 292 258 225 266 231
338 341 341 341 343 342 341 337 336 334 334 345 314 280 240 312 274 333 240 182 215 240 231 237 248 255 252 272 238 229 239 257 225 193 239 225 262 274 229 255 244 215 249 253 231 231 253 231 251 244 250 252 244 207 223 182 183 318 166 191 258 251 231 224 214 221 250 269 261 253 228 227 219 224 227 227 252 255 234 225 240 251 268 248 233 199 241
341 343 343 344 345 345 343 340 338 335 331 337 295 283 253 270 308 321 36 302 230 216 230 246 254 248 232 267 294 248 227 229 256 166 223 252 214 240 216 241 251 264 225 226 253 239 237 238 232 233 236 246 246 245 216 212 139 141 217 181 228 248 255 238 236 225 229 244 262 269 259 243 257 241 232 237 220 238 253 254 252 250 235 245 204 193 246
342 344 344 346 348 348 346 343 341 338 332 329 233 303 326 322 330 300 12 325 296 281 285 255 254 257 258 247 251 278 281 251 218 223 196 224 251 208 249 217 226 242 245 241 250 246 247 234 251 238 227 242 249 261 195 230 236 179 239 220 198 243 248 267 242 250 238 234 248 251 259 263 232 229 236 232 246 246 227 233 248 248 252 255 243 181 223
342 345 345 347 350 350 350 347 346 342 337 324 314 46 338 11 343 332 335 318 296 287 276 268 263 266 274 289 255 270 266 259 247 216 259 227 227 196 238 257 226 218 232 235 241 258 261 218 279 335 306 264 240 239 240 224 225 247 208 220 198 224 225 248 272 261 243 241 234 238 249 252 265 256 233 234 229 223 231 234 230 242 255 263 256 218 209
342 345 345 349 351 351 353 351 349 346 341 346 352 24 24 331 324 326 316 312 303 297 277 272 264 262 242 241 241 250 249 254 272 273 210 258 277 263 257 254 297 323 271 233 328 330 296 324 268 299 266 288 290 258 86 333 276 230 224 199 226 191 241 232 240 253 262 253 245 235 233 242 248 248 253 247 255 269 251 242 254 246 232 222 244 239 203
342 342 344 352 353 353 355 354 350 352 336 354 347 356 2 344 334 321 296 288 287 282 271 272 275 263 261 259 259 253 250 263 199 258 266 271 271 310 331 342 306 283 253 252 152 237 302 297 327 295 287 279 280 278 268 217 249 255 239 219 232 209 213 236 236 247 250 251 259 250 232 231 236 237 237 243 257 266 250 228 247 278 294 280 250 265 90
340 341 342 351 349 352 356 356 353 355 354 7 350 331 348 358 337 323 310 283 283 269 269 269 262 266 282 268 264 256 282 290 270 265 246 269 249 239 248 279 259 248 252 12 1 358 300 289 287 283 258 255 267 262 272 273 272 273 255 214 234 250 230 228 241 258 252 241 245 252 248 232 232 229 232 237 245 236 242 246 231 227 230 276 85 101 103
337 339 342 348 343 348 354 358 354 354 357 346 326 307 351 347 321 309 308 300 285 278 262 263 261 262 263 261 260 283 268 252 263 274 270 264 298 321 294 256 279 244 46 304 333 328 315 289 274 267 272 260 252 253 247 245 247 250 263 271 239 237 242 241 228 239 249 262 261 261 252 242 242 235 233 226 227 245 260 274 274 280 267 108 106 108 131
333 337 340 346 347 350 352 1 357 351 353 346 332 322 338 354 327 327 317 296 283 286 283 307 320 299 273 252 250 255 263 275 272 275 280 283 280 258 255 275 285 317 17 319 327 301 282 276 261 252 236 230 238 243 247 245 244 241 235 231 251 238 236 245 232 240 258 255 244 254 244 271 289 346 288 232 219 222 229 231 231 247 264 150 136 115 99
330 334 336 344 347 350 350 357 356 352 347 346 330 314 312 9 347 339 340 323 293 297 316 312 277 342 342 342 279 235 245 270 274 270 271 262 262 265 273 271 270 341 324 334 295 297 262 250 263 271 249 252 253 247 241 249 243 237 234 231 222 246 256 248 249 222 253 248 254 251 286 275 261 250 258 285 294 272 248 244 215 227 171 195 106 104 116
325 330 333 338 344 347 348 349 353 352 345 341 322 316 336 15 3 326 320 293 292 301 288 280 347 331 331 314 337 334 287 268 263 251 244 252 261 268 269 259 269 273 359 309 286 261 240 254 261 243 236 231 231 236 252 254 253 248 248 242 234 219 238 236 247 227 237 248 240 248 247 250 255 236 275 325 325 318 291 269 228 201 196 183 229 119 104
321 326 330 336 337 341 345 346 346 351 346 340 328 328 316 31 348 328 314 312 307 287 107 360 328 328 314 311 316 318 304 301 296 300 274 242 239 235 227 246 264 20 307 287 277 270 267 222 219 233 246 241 242 259 236 271 296 292 246 244 244 236 221 243 253 255 229 227 245 246 252 256 292 300 231 181 13 349 343 228 243 179 220 252 106 119 129
315 320 326 333 334 336 341 344 341 351 350 345 336 316 314 42 0 351 322 302 285 267 310 311 337 323 298 289 286 267 320 313 307 286 283 260 272 277 254 253 235 196 264 279 269 264 240 243 249 228 253 275 264 260 270 264 264 267 303 326 327 300 245 222 228 245 245 253 240 236 244 300 38 28 19 31 93 222 300 269 239 155 176 146 126 133 142
306 315 322 328 331 332 338 342 340 351 354 338 329 320 288 19 19 347 311 299 299 294 256 18 353 333 323 359 315 312 307 285 294 325 294 299 291 302 328 322 303 2 308 259 245 244 248 248 241 234 238 229 300 354 257 262 251 197 326 300 303 318 330 321 266 238 233 244 255 258 163 67 297 208 100 12 21 48 240 243 327 327 149 82 75 122 130
299 308 317 322 325 330 334 339 339 346 355 346 334 317 316 355 4 8 316 298 291 274 298 331 312 302 307 311 287 299 279 277 293 304 305 298 342 347 313 282 314 289 217 253 248 263 262 242 228 223 223 271 262 248 275 248 248 253 234 249 289 320 338 297 334 286 262 248 250 278 68 347 334 290 81 34 259 203 231 25 22 55 78 99 115 93 89
292 300 308 315 319 326 334 334 335 339 349 356 337 319 301 306 269 34 352 328 312 292 298 291 286 304 340 324 316 308 327 299 274 289 276 272 14 343 335 282 231 239 259 281 278 264 241 240 237 244 230 183 209 251 237 243 240 244 262 218 220 290 300 324 327 332 290 247 33 353 285 326 318 13 38 7 311 82 330 150 81 123 141 84 79 84 95
285 289 297 308 315 323 330 332 329 331 343 358 340 319 311 315 11 13 347 326 306 303 287 268 356 330 311 299 294 298 296 289 320 324 329 321 341 314 261 348 345 330 311 313 274 244 247 253 237 237 276 353 116 264 252 320 270 233 234 243 261 167 263 235 162 122 2 300 286 292 95 200 353 8 62 33 42 26 31 55 94 64 89 98 86 79 78
281 282 293 302 310 318 323 326 325 325 334 352 328 302 297 330 337 339 342 312 285 266 272 301 300 290 284 276 272 271 274 277 286 302 315 310 314 300 313 298 299 302 330 333 271 268 268 337 317 276 282 32 283 246 106 229 242 308 289 272 243 190 227 7 314 137 253 135 236 301 307 224 126 111 99 138 164 287 105 46 110 111 99 92 93 104 101
279 282 290 296 304 312 321 320 319 324 327 343 320 318 307 313 310 324 312 289 275 267 267 268 271 269 266 261 254 254 252 257 265 265 260 278 280 275 276 293 289 337 351 344 335 327 335 328 282 329 201 154 293 284 267 284 267 228 248 211 282 129 255 53 285 278 298 263 226 287 317 319 136 126 51 50 134 194 252 199 102 76 95 88 104 107 109
275 279 284 293 297 307 314 312 312 317 325 336 325 316 305 307 307 302 301 294 286 297 290 251 242 251 253 287 239 206 232 242 246 255 260 249 259 265 265 266 332 297 349 23 335 316 326 320 288 320 310 175 235 224 247 256 255 275 260 255 274 326 306 290 282 300 292 260 265 274 244 216 253 153 125 83 1 347 44 59 44 52 161 116 104 108 106
268 271 278 287 293 301 306 305 304 309 335 314 293 291 285 278 276 325 323 316 321 332 306 316 289 277 301 329 308 268 224 236 222 222 229 224 237 256 256 17 348 323 324 332 329 302 282 281 297 269 270 251 254 254 226 231 237 228 256 241 230 215 229 249 223 263 255 268 233 218 239 289 284 244 154 117 211 1 342 115 66 23 65 106 111 114 111
259 267 275 282 293 297 296 298 299 305 311 326 309 296 297 291 305 302 290 270 276 278 284 290 293 279 200 289 255 295 280 217 225 218 219 233 231 241 267 291 289 301 291 295 296 298 295 283 279 271 261 261 232 269 259 249 280 209 215 67 286 322 205 234 204 238 232 238 245 256 246 272 300 322 351 41 117 69 52 52 45 356 348 124 136 139 127
253 264 271 281 286 290 294 293 300 308 308 310 295 295 280 277 278 276 275 312 313 265 220 248 293 308 332 324 307 297 286 276 250 244 241 227 234 238 247 260 271 280 279 271 261 269 268 265 271 267 254 262 269 268 276 260 265 260 302 234 184 240 239 279 273 253 244 7 343 324 252 199 264 204 22 58 92 68 88 99 103 123 91 98 170 159 159
250 256 264 274 282 285 289 293 293 300 308 301 283 280 271 266 261 254 258 258 264 291 315 307 302 306 319 288 271 265 252 246 246 248 243 242 236 234 243 246 254 266 248 244 251 242 245 250 242 247 263 264 264 251 243 265 266 267 241 226 209 270 86 247 244 257 233 169 232 316 136 172 224 304 322 62 146 138 141 145 147 142 91 54 291 251 172
241 248 254 263 273 279 285 288 293 303 305 291 292 285 268 247 245 239 243 245 260 283 285 288 283 274 268 321 340 297 281 236 229 232 239 238 233 231 229 235 246 248 247 247 258 273 267 260 262 255 250 34 311 276 287 257 245 252 320 11 183 62 84 85 279 276 212 161 138 272 303 289 220 208 193 158 192 178 186 175 159 123 124 86 54 34 92
235 242 249 259 268 277 283 283 294 297 305 306 305 284 275 180 185 184 302 142 295 276 289 306 306 294 324 307 277 272 257 231 229 232 234 238 236 229 227 228 230 235 254 256 242 240 235 251 262 263 269 171 237 265 252 250 251 213 345 300 117 106 313 112 315 173 127 124 171 233 232 232 150 53 273 199 207 173 214 158 125 140 143 126 86 35 28
230 235 246 254 262 272 275 281 287 295 296 287 287 277 259 175 82 27 23 292 248 284 294 286 277 297 285 257 253 249 248 247 229 230 232 234 238 236 229 224 228 221 227 232 242 250 262 247 244 247 256 264 278 259 255 257 255 190 167 203 247 145 227 217 169 105 119 68 93 212 207 215 118 157 339 57 96 278 222 153 146 130 147 107 90 94 65
226 235 245 254 262 263 271 275 278 283 280 277 251 273 359 359 359 341 340 297 294 274 279 292 291 270 278 277 213 219 261 235 230 224 234 230 229 219 233 219 229 206 227 239 233 241 238 252 259 265 259 234 223 241 245 255 254 247 152 246 134 104 226 229 180 128 53 99 152 136 195 177 61 67 100 210 217 215 216 115 122 125 127 118 145 169 116
224 233 241 253 258 261 263 272 276 275 274 291 307 298 285 268 249 254 267 268 266 263 274 279 273 297 276 311 330 211 198 219 228 229 243 204 241 209 226 204 223 235 187 222 231 248 234 233 232 246 250 297 282 258 246 240 236 249 216 229 156 166 183 359 112 138 130 82 330 164 102 23 1 46 24 296 229 298 276 159 109 161 152 147 156 119 130
228 233 248 252 257 267 275 282 283 278 273 266 259 241 238 234 220 203 218 240 275 279 264 264 273 269 274 294 281 79 155 253 241 204 235 187 220 218 222 203 196 230 194 213 208 230 235 255 241 244 235 226 230 250 243 241 245 260 219 211 192 147 182 211 207 168 162 140 140 114 118 148 200 307 254 295 66 180 297 113 126 165 155 166 170 146 134
224 240 249 255 265 276 279 267 269 246 256 249 246 250 102 151 179 169 198 215 225 214 215 232 243 279 279 262 247 150 192 252 250 207 247 179 183 225 202 225 180 207 195 202 239 227 235 226 230 240 235 231 223 223 228 241 250 253 247 214 183 164 175 197 204 163 163 173 170 185 170 161 169 232 264 301 43 70 51 348 208 163 136 169 154 147 142
227 245 264 275 278 270 271 241 233 245 239 243 271 99 113 121 137 172 190 212 254 302 278 268 257 259 278 283 295 105 249 267 265 285 288 296 185 215 257 243 216 197 246 213 227 217 233 210 218 235 229 232 229 226 226 214 231 241 252 245 192 188 188 192 169 176 176 274 216 168 198 202 209 194 119 69 59 36 335 247 249 268 156 148 111 120 126
196 287 291 287 270 260 240 247 196 208 251 81 108 104 41 220 210 175 185 223 220 236 267 288 281 264 275 294 338 292 296 287 205 220 233 244 251 183 222 220 241 211 203 231 240 238 227 204 234 241 225 229 235 234 249 234 206 216 230 247 205 182 173 186 213 219 174 213 222 208 206 94 116 115 97 83 97 129 169 243 246 210 213 161 137 123 117
91 319 288 270 243 248 247 213 219 135 113 126 147 154 183 189 227 204 196 222 212 204 223 235 250 263 285 284 268 316 323 293 338 289 236 207 227 227 213 216 214 208 231 227 230 222 255 226 215 233 245 236 251 269 250 218 218 215 216 238 245 180 180 207 204 222 217 200 228 255 237 196 256 158 119 124 143 207 149 160 203 224 200 151 142 148 150
151 252 242 234 253 255 298 104 145 188 204 160 202 244 207 210 227 220 212 200 187 213 217 233 245 240 244 255 264 277 276 316 305 298 275 40 341 259 204 231 199 224 244 238 218 193 227 218 230 222 231 228 237 239 254 264 290 49 35 42 47 43 56 54 351 236 218 210 184 212 235 199 208 271 128 147 194 220 151 197 146 172 166 146 158 159 155
201 212 221 202 224 238 109 119 184 205 198 241 208 267 264 189 228 245 175 203 207 231 207 237 220 229 232 246 260 250 207 237 254 259 318 326 105 289 3 296 27 228 231 233 207 163 226 224 206 226 229 209 54 30 36 50 69 62 57 46 45 46 44 43 43 24 350 315 213 209 182 200 233 229 207 201 160 176 165 169 182 156 149 152 151 159 158
206 234 221 238 351 329 354 309 235 226 230 222 219 221 252 247 214 253 232 226 240 235 194 248 200 198 202 232 246 261 49 345 335 333 294 266 262 304 261 241 42 272 245 240 164 197 223 238 228 226 102 55 47 41 51 51 51 54 42 44 39 36 26 27 23 25 8 8 360 356 349 319 223 226 226 202 147 156 206 196 161 171 163 163 163 159 147
26 329 328 300 278 283 288 240 274 251 218 247 257 238 220 246 223 214 241 259 238 230 181 206 233 230 218 196 210 244 282 26 330 316 304 284 216 250 260 208 142 245 237 241 290 239 232 238 231 176 72 60 54 55 54 54 41 42 32 28 30 23 15 21 11 11 3 351 341 325 319 301 304 311 319 321 121 187 183 188 181 192 163 155 147 145 139
297 260 253 277 253 227 196 251 195 233 212 204 205 268 247 238 227 238 208 216 267 281 132 201 288 25 44 5 229 153 293 42 310 302 267 261 316 255 267 262 241 241 247 242 259 248 242 234 308 64 2 58 37 46 47 44 33 32 30 20 18 16 11 6 6 355 348 336 331 321 312 299 287 292 296 308 150 163 166 180 175 146 139 149 149 147 141
264 260 228 212 229 209 200 222 172 205 220 214 190 225 231 242 236 210 238 208 183 218 159 216 240 284 243 176 241 171 210 190 209 290 256 285 284 244 243 248 236 270 290 245 221 237 237 53 126 117 83 71 44 41 38 37 35 19 28 356 20 0 14 352 356 353 349 336 321 305 301 289 281 273 273 273 262 169 159 173 161 152 153 147 145 144 145
202 183 217 208 232 183 182 249 186 205 219 214 221 236 228 236 295 290 304 39 157 91 352 206 147 201 252 127 268 212 231 190 25 264 255 250 252 251 245 248 287 280 249 254 237 226 199 158 145 123 109 85 67 48 41 42 34 27 349 7 30 6 0 348 345 327 324 315 319 316 299 293 291 275 260 254 261 253 183 155 147 149 155 155 145 146 148
202 197 183 180 268 244 215 227 174 221 225 236 224 233 254 258 62 11 4 286 214 168 219 218 286 288 275 174 248 279 228 173 191 212 228 211 260 251 254 282 291 271 261 243 245 245 335 90 113 96 84 77 68 65 47 49 37 30 15 26 8 10 347 343 326 321 305 305 305 311 301 287 278 278 267 258 242 253 182 145 151 153 151 151 154 149 151
242 225 239 227 251 214 210 230 212 224 237 217 239 244 242 258 20 353 17 307 316 39 357 14 327 293 282 258 239 207 202 189 236 187 201 243 237 299 321 269 246 242 247 241 245 226 136 111 96 94 84 80 72 64 52 50 34 38 22 15 351 357 356 331 323 311 306 301 298 295 291 284 278 268 264 263 253 247 176 151 153 153 154 156 153 152 150
232 218 216 213 228 212 219 226 248 248 243 250 234 246 288 331 304 286 280 305 308 305 279 294 260 236 248 219 238 263 263 254 257 231 220 231 248 262 235 258 252 249 251 259 345 60 113 116 108 97 98 56 50 46 48 32 23 18 21 2 354 345 339 335 310 303 303 291 290 289 290 289 279 269 263 256 244 235 157 157 153 152 148 150 156 156 150
289 272 221 231 228 227 229 225 226 243 248 248 248 264 262 269 279 285 297 338 290 278 298 281 292 332 285 290 255 245 246 188 231 226 190 220 204 224 217 241 227 240 222 280 126 145 134 135 127 131 106 106 80 40 31 353 6 345 3 343 350 333 323 322 326 305 299 299 291 293 290 291 289 278 263 253 245 227 167 159 155 154 156 154 154 152 150
236 224 238 251 273 268 269 286 286 267 240 236 232 240 233 245 259 276 307 295 237 259 264 262 271 280 279 285 252 238 249 235 244 247 230 225 230 228 228 243 239 255 53 52 129 121 116 129 134 110 80 67 63 11 6 327 339 322 335 327 337 329 325 318 317 317 307 300 298 293 293 292 285 279 266 258 285 117 162 160 154 151 154 154 154 157 154
228 254 255 243 252 278 319 278 258 260 241 235 256 254 226 230 235 253 266 279 249 235 224 248 239 238 236 226 243 240 230 210 235 236 244 243 226 233 236 248 34 81 91 72 85 86 84 67 56 67 80 46 29 5 346 337 325 325 314 329 325 318 321 314 310 311 308 301 302 301 294 295 293 285 312 70 93 73 333 320 142 145 150 153 155 154 149
242 239 248 239 236 249 254 267 271 272 280 286 286 296 314 257 212 150 87 305 62 246 232 221 238 233 236 247 234 252 293 240 233 237 233 232 241 253 237 245 146 148 136 131 105 103 115 97 82 59 48 21 13 346 336 321 315 311 324 328 321 315 314 321 314 309 307 306 304 304 304 299 307 338 61 108 137 145 162 219 180 145 150 149 153 157 151